User: anonymous   Login
Location: Rancho Del Sol Observatory
(38.7214°N, 120.6350°W)
Time: 05:47:48
(UTC-08:00)
Language:

A-11 Canister half - Orbit

View from above orbital plane
View from above orbital plane
View from above satellite
View from above satellite

Ground track
Ground track

The orbit data is extracted from the following two-line orbital elements,

1    51U 60009C   20016.57380972 -.00000187 +00000-0 -97564-3 0  9993
2    51 047.2130 100.3863 0104682 069.8994 291.3024 12.18271984645450
Epoch (UTC): 16 January 2020 13:46:17
Eccentricity: 0.0104682
inclination: 47.2130°
perigee height: 1516 km
apogee height: 1683 km
right ascension of ascending node: 100.3863°
argument of perigee: 69.8994°
revolutions per day: 12.18271984
mean anomaly at epoch: 291.3024°
orbit number at epoch: 64545

The dashed part of the orbit path shows where the satellite is in the earth's shadow,  

DLR